Location: Allonne
(49.4086°N, 2.1143°E)
Time: 22:51:09
(UTC+00:00)

Cosmos 2322 Rocket - Pass Details

Date: 03 February 2023
Orbit: 831 x 852 km, 71.0° (Epoch: 01 April)

Event Time Altitude Azimuth Distance (km) Brightness Sun altitude
Rises 20:00:40 0° 247° (WSW) 3,370 6.1 -31.0°
Reaches altitude 10° 20:03:31 10° 260° (W) 2,440 5.4 -31.5°
Maximum altitude 20:08:08 26° 316° (NW) 1,594 4.0 -32.2°
Enters shadow 20:11:03 17° 358° (N) 1,980 4.2 -32.7°
